sat.trackr.live / text

‹ back to catalog

STARLINK-33965

NORAD 64755 · 2025-147A

PAYLOAD ACTIVE UNKNOWN

§ Identity

Operator
Country
US
Launch date
2025-07-08
Launch site
AFETR
Launch vehicle
Mass (kg)
RCS (m²)

Purposes: comms

External: N2YO · Heavens-Above · Gunter

§ Orbital elements

Epoch: 2026-05-24T23:31:11.512704Z

Period
93.85 min
Inclination
53.1588°
Eccentricity
0.0000903
Mean motion
15.34357929 rev/d
Perigee alt
462.2 km
Apogee alt
463.4 km
Semi-major
6,841.0 km
B*
6.8052e-4
RAAN
247.5813°
Arg perigee
85.0210°
Mean anomaly
275.0896°
Rev number
5,048

§ Raw data

STARLINK-339651 64755U 25147A   26144.97999436  .00022655  00000+0  68052-3 0  99922 64755  53.1588 247.5813 0000903  85.0210 275.0896 15.34357929 50489

JSON: /api/v1/satellites/64755 · /tle

For live sub-satellite position, see the globe view (requires WebGL).

§ Visibility from observer

Set your observer location to see the next 7 days of passes ≥ 10°. The values pass through the URL so the page stays shareable.

No JS? Fill the form by hand. The geolocation button needs JavaScript.